CW5404 Weather Reports


time (UTC)temp
C
wind
direction
speed
KPH
gust
KPH
rain 1hr
cm
rain 24hr
cm
rain mn
cm
humidity
%
barometer
mb
20260503002903 20 3.2 8.0 0.00 0.00 0.00 59 1011.0
20260503002403 20 0.0 8.0 0.00 0.00 0.00 60 1010.9
20260503001933 20 1.6 8.0 0.00 0.00 0.00 59 1010.9
20260503001433 20 8.0 8.0 0.00 0.00 0.00 61 1010.9
20260503000402 20 0.0 9.7 0.00 0.00 0.00 63 1010.9
20260502235432 20 1.6 11.3 0.00 0.00 0.00 62 1011.0
20260502234902 20 1.6 11.3 0.00 0.00 0.00 62 1011.0
20260502234432 20 6.4 9.7 0.00 0.00 0.00 65 1011.0
20260502233902 20 4.8 9.7 0.00 0.00 0.00 63 1011.3
20260502233402 20 4.8 8.0 0.00 0.00 0.00 63 1011.3
20260502232902 20 3.2 8.0 0.00 0.00 0.00 64 1011.3
20260502232432 20 3.2 6.4 0.00 0.00 0.00 64 1011.5
20260502231402 19 6.4 8.0 0.00 0.00 0.00 63 1011.5
20260502230902 19 4.8 9.7 0.00 0.00 0.00 64 1011.9
20260502230432 19 3.2 11.3 0.00 0.00 0.00 63 1011.9
20260502225932 20 4.8 11.3 0.00 0.00 0.00 63 1011.9
20260502224931 20 1.6 6.4 0.00 0.00 0.00 65 1012.0
20260502224430 20 1.6 6.4 0.00 0.00 0.00 63 1012.0
20260502223901 20 3.2 12.9 0.00 0.00 0.00 63 1012.4
20260502223430 20 0.0 12.9 0.00 0.00 0.00 66 1012.4
20260502222930 20 4.8 9.7 0.00 0.00 0.00 63 1012.4
20260502222431 20 1.6 6.4 0.00 0.00 0.00 60 1012.6
20260502221930 20 6.4 6.4 0.00 0.00 0.00 66 1012.6
20260502221430 19 3.2 8.0 0.00 0.00 0.00 65 1012.6
20260502220930 19 1.6 8.0 0.00 0.00 0.00 62 1012.6
20260502215930 18 0.0 6.4 0.00 0.00 0.00 65 1012.6
20260502215430 18 0.0 8.0 0.00 0.00 0.00 66 1012.9
20260502214929 18 3.2 8.0 0.00 0.00 0.00 65 1012.9
20260502214430 18 3.2 8.0 0.00 0.00 0.00 67 1012.9
20260502212930 17 0.0 11.3 0.00 0.00 0.00 66 1012.9
20260502212429 17 3.2 9.7 0.00 0.00 0.00 67 1013.0
20260502211930 17 9.7 9.7 0.00 0.00 0.00 66 1013.0
20260502211429 17 3.2 11.3 0.00 0.00 0.00 66 1013.0
20260502210929 17 6.4 11.3 0.00 0.00 0.00 67 1013.3
20260502210429 17 1.6 11.3 0.00 0.00 0.00 68 1013.3
20260502205929 17 3.2 11.3 0.00 0.00 0.00 66 1013.3
20260502204929 17 4.8 8.0 0.00 0.00 0.00 68 1013.5
20260502204429 17 0.0 8.0 0.00 0.00 0.00 66 1013.4
20260502203929 16 4.8 9.7 0.00 0.00 0.00 68 1013.7
20260502203430 16 4.8 9.7 0.00 0.00 0.00 67 1013.7
20260502202929 16 3.2 11.3 0.00 0.00 0.00 68 1013.7
20260502202429 16 6.4 11.3 0.00 0.00 0.00 70 1013.9
20260502201358 16 6.4 9.7 0.00 0.00 0.00 68 1013.9
20260502200929 16 0.0 9.7 0.00 0.00 0.00 67 1014.1
20260502200429 16 0.0 9.7 0.00 0.00 0.00 66 1014.1
20260502195928 16 0.0 8.0 0.00 0.00 0.00 65 1014.1
20260502195428 16 1.6 8.0 0.00 0.00 0.00 65 1014.3
20260502194928 16 4.8 9.7 0.00 0.00 0.00 69 1014.3
20260502193428 15 3.2 9.7 0.00 0.00 0.00 70 1014.6
20260502192928 15 8.0 9.7 0.00 0.00 0.00 71 1014.6
20260502192427 15 3.2 11.3 0.00 0.00 0.00 71 1015.0
20260502191428 15 1.6 9.7 0.00 0.00 0.00 69 1015.0
20260502190927 15 4.8 9.7 0.00 0.00 0.00 68 1015.0
20260502190428 15 4.8 9.7 0.00 0.00 0.00 71 1015.0
20260502185927 15 4.8 9.7 0.00 0.00 0.00 71 1015.0
20260502185428 14 0.0 6.4 0.00 0.00 0.00 70 1015.0
20260502184927 14 0.0 6.4 0.00 0.00 0.00 69 1015.0
20260502184427 14 1.6 4.8 0.00 0.00 0.00 73 1015.0
20260502183927 14 0.0 4.8 0.00 0.00 0.00 71 1015.1
20260502183357 14 0.0 4.8 0.00 0.00 0.00 70 1015.1
20260502182927 13 0.0 0.0 0.00 0.00 0.00 73 1015.1
20260502182427 13 0.0 4.8 0.00 0.00 0.00 74 1015.2
20260502181427 13 3.2 6.4 0.00 0.00 0.00 75 1015.2
20260502180927 13 0.0 8.0 0.00 0.00 0.00 76 1015.3
20260502180357 13 6.4 8.0 0.00 0.00 0.00 77 1015.3
20260502170427 12 0.0 9.7 0.00 0.00 0.00 79 1015.0
20260502163926 12 1.6 6.4 0.00 0.00 0.00 77 1015.5
20260502163425 12 0.0 6.4 0.00 0.00 0.00 77 1015.5
20260502162926 12 0.0 0.0 0.00 0.00 0.00 77 1015.5
20260502162426 12 0.0 0.0 0.00 0.00 0.00 79 1015.6
20260502161926 11 0.0 0.0 0.00 0.00 0.00 79 1015.6
20260502161425 11 0.0 0.0 0.00 0.00 0.00 80 1015.6
20260502160926 11 0.0 0.0 0.00 0.00 0.00 80 1015.6
20260502160425 11 0.0 0.0 0.00 0.00 0.00 81 1015.5
20260502151925 10 0.0 3.2 0.00 0.00 0.00 86 1015.6
20260502151425 10 0.0 3.2 0.00 0.00 0.00 86 1015.6
20260502150925 10 0.0 0.0 0.00 0.00 0.00 87 1015.6
20260502130424 8 0.0 0.0 0.00 0.00 0.00 89 1015.6
20260502123424 9 0.0 0.0 0.00 0.00 0.00 87 1015.5
20260502122924 9 0.0 0.0 0.00 0.00 0.00 87 1015.5
20260502122424 9 0.0 0.0 0.00 0.00 0.00 87 1015.4
20260502121924 9 0.0 0.0 0.00 0.00 0.00 86 1015.4
20260502120924 10 0.0 0.0 0.00 0.00 0.00 86 1015.5
20260502120424 10 0.0 0.0 0.00 0.00 0.00 86 1015.5
20260502115924 10 0.0 0.0 0.00 0.00 0.00 85 1015.5
20260502115424 10 0.0 0.0 0.00 0.00 0.00 85 1015.6
20260502114924 10 0.0 0.0 0.00 0.00 0.00 85 1015.6
20260502114424 10 0.0 3.2 0.00 0.00 0.00 85 1015.6
20260502113924 10 0.0 3.2 0.00 0.00 0.00 84 1015.4
20260502113424 10 1.6 3.2 0.00 0.00 0.00 84 1015.4
20260502112924 10 0.0 3.2 0.00 0.00 0.00 84 1015.4
20260502112424 10 1.6 6.4 0.00 0.00 0.00 84 1015.4
20260502111924 10 1.6 6.4 0.00 0.00 0.00 84 1015.4
20260502111424 10 1.6 6.4 0.00 0.00 0.00 84 1015.4
20260502110924 10 3.2 4.8 0.00 0.00 0.00 84 1015.4
20260502110424 10 0.0 8.0 0.00 0.00 0.00 85 1015.4
20260502105924 10 1.6 8.0 0.00 0.00 0.00 84 1015.4
20260502105423 10 8.0 8.0 0.00 0.00 0.00 84 1015.1
20260502104924 10 0.0 6.4 0.00 0.00 0.00 83 1015.1
20260502104424 10 3.2 4.8 0.00 0.00 0.00 83 1015.1
20260502103423 10 0.0 0.0 0.00 0.00 0.00 83 1015.0
20260502102924 11 0.0 0.0 0.00 0.00 0.00 83 1015.0
20260502102424 11 0.0 0.0 0.00 0.00 0.00 83 1015.2
20260502101924 10 0.0 0.0 0.00 0.00 0.00 82 1015.2
20260502101424 10 0.0 0.0 0.00 0.00 0.00 81 1015.2
20260502100924 10 0.0 0.0 0.00 0.00 0.00 82 1015.1
20260502091423 11 0.0 0.0 0.00 0.00 0.00 83 1015.6
20260502090423 11 0.0 0.0 0.00 0.00 0.00 83 1016.0
20260502071422 11 0.0 0.0 0.00 0.00 0.00 81 1016.4
20260502070922 11 0.0 0.0 0.00 0.00 0.00 81 1016.2
20260502070422 11 0.0 0.0 0.00 0.00 0.00 81 1016.2
20260502065922 11 0.0 0.0 0.00 0.00 0.00 81 1016.2
20260502065421 11 0.0 0.0 0.00 0.00 0.00 81 1016.3
20260502064921 12 0.0 0.0 0.00 0.00 0.00 81 1016.3
20260502064421 12 0.0 0.0 0.00 0.00 0.00 81 1016.3
20260502063921 12 0.0 0.0 0.00 0.00 0.00 81 1016.2
20260502063421 12 0.0 0.0 0.00 0.00 0.00 81 1016.2
20260502062421 12 0.0 0.0 0.00 0.00 0.00 80 1016.2
20260502060921 12 0.0 3.2 0.00 0.00 0.00 81 1016.2
20260502060421 12 0.0 3.2 0.00 0.00 0.00 81 1016.2
20260502055421 12 1.6 6.4 0.00 0.00 0.00 80 1015.9
20260502054921 12 0.0 1.6 0.00 0.00 0.00 80 1015.9
20260502054421 12 0.0 1.6 0.00 0.00 0.00 80 1015.9
20260502053921 12 1.6 1.6 0.00 0.00 0.00 79 1015.8
20260502053421 12 0.0 1.6 0.00 0.00 0.00 79 1015.8
20260502052921 12 0.0 3.2 0.00 0.00 0.00 79 1015.8
20260502051920 12 0.0 3.2 0.00 0.00 0.00 78 1015.7
20260502051420 12 0.0 0.0 0.00 0.00 0.00 77 1015.7
20260502050921 12 0.0 0.0 0.00 0.00 0.00 76 1015.6
20260502050420 12 0.0 0.0 0.00 0.00 0.00 75 1015.6
20260502045921 12 0.0 4.8 0.00 0.00 0.00 74 1015.6
20260502045420 13 0.0 4.8 0.00 0.00 0.00 73 1015.5
20260502044920 13 1.6 4.8 0.00 0.00 0.00 72 1015.5
20260502044421 13 1.6 4.8 0.00 0.00 0.00 69 1015.5
20260502043920 13 0.0 0.0 0.00 0.00 0.00 65 1015.2
20260502043420 13 0.0 0.0 0.00 0.00 0.00 66 1015.2
20260502042920 13 0.0 0.0 0.00 0.00 0.00 65 1015.2
20260502041920 14 0.0 0.0 0.00 0.00 0.00 65 1015.2
20260502040920 14 0.0 0.0 0.00 0.00 0.00 64 1015.1
20260502040420 15 0.0 0.0 0.00 0.00 0.00 62 1015.1
20260502035920 15 0.0 0.0 0.00 0.00 0.00 61 1015.1
20260502035420 15 0.0 0.0 0.00 0.00 0.00 61 1014.9
20260502034920 15 0.0 0.0 0.00 0.00 0.00 61 1014.9
20260502034420 15 0.0 0.0 0.00 0.00 0.00 61 1014.9
20260502033920 15 0.0 0.0 0.00 0.00 0.00 60 1014.6
20260502033420 15 0.0 8.0 0.00 0.00 0.00 59 1014.6
20260502032419 15 0.0 4.8 0.00 0.00 0.00 57 1014.5
20260502031419 15 0.0 4.8 0.00 0.00 0.00 57 1014.5
20260502030919 16 0.0 4.8 0.00 0.00 0.00 59 1014.3
20260502024919 16 0.0 1.6 0.00 0.00 0.00 56 1014.1
20260502024419 16 1.6 3.2 0.00 0.00 0.00 57 1014.1
20260502023919 16 0.0 3.2 0.00 0.00 0.00 56 1014.0
20260502023419 17 0.0 0.0 0.00 0.00 0.00 56 1014.0
20260502022919 17 0.0 3.2 0.00 0.00 0.00 57 1014.0
20260502021919 17 0.0 3.2 0.00 0.00 0.00 55 1013.9
20260502021419 17 0.0 3.2 0.00 0.00 0.00 55 1013.9
20260502020919 17 1.6 3.2 0.00 0.00 0.00 55 1014.0
20260502020419 17 1.6 6.4 0.00 0.00 0.00 56 1014.0
20260502015919 17 1.6 6.4 0.00 0.00 0.00 56 1014.0
20260502015419 18 1.6 4.8 0.00 0.00 0.00 58 1013.9
20260502014919 18 0.0 4.8 0.00 0.00 0.00 57 1013.9
20260502014419 18 0.0 4.8 0.00 0.00 0.00 58 1013.9
20260502013418 18 0.0 3.2 0.00 0.00 0.00 58 1013.9
20260502012919 18 0.0 3.2 0.00 0.00 0.00 58 1013.9
20260502011918 18 1.6 9.7 0.00 0.00 0.00 56 1013.9
20260502011419 19 0.0 9.7 0.00 0.00 0.00 55 1013.9
20260502010918 19 0.0 6.4 0.00 0.00 0.00 57 1013.9
20260502010418 20 0.0 6.4 0.00 0.00 0.00 55 1013.9
20260502005918 20 0.0 3.2 0.00 0.00 0.00 54 1013.9
20260502005418 20 0.0 3.2 0.00 0.00 0.00 54 1013.8
20260502004918 20 0.0 4.8 0.00 0.00 0.00 56 1013.8
20260502004418 20 0.0 4.8 0.00 0.00 0.00 56 1013.8
20260502003918 20 3.2 4.8 0.00 0.00 0.00 53 1013.8
20260502003417 20 0.0 3.2 0.00 0.00 0.00 55 1013.8